TimeMDT,TemperatureF,Dew PointF,Humidity,Sea Level PressureIn,VisibilityMPH,Wind Direction,Wind SpeedMPH,Gust SpeedMPH,PrecipitationIn,Events,Conditions,WindDirDegrees,DateUTC
12:53 AM,34.0,12.9,42,29.93,10.0,ENE,23.0,-,N/A,,Overcast,60,2013-04-17 06:53:00
1:53 AM,34.0,10.9,38,29.94,10.0,ENE,23.0,29.9,N/A,,Overcast,60,2013-04-17 07:53:00
2:53 AM,33.1,10.0,38,29.93,10.0,NE,17.3,27.6,N/A,,Overcast,50,2013-04-17 08:53:00
3:53 AM,32.0,10.0,40,29.94,10.0,NE,18.4,-,N/A,,Partly Cloudy,50,2013-04-17 09:53:00
4:53 AM,32.0,9.0,38,29.94,10.0,NE,10.4,-,N/A,,Clear,50,2013-04-17 10:53:00
5:53 AM,30.9,10.0,42,29.95,10.0,NNE,10.4,-,N/A,,Scattered Clouds,20,2013-04-17 11:53:00
6:53 AM,30.9,9.0,40,29.97,10.0,NE,18.4,-,N/A,,Mostly Cloudy,50,2013-04-17 12:53:00
8:53 AM,35.1,10.9,37,30.01,10.0,NE,12.7,-,N/A,,Clear,40,2013-04-17 14:53:00
9:53 AM,37.0,10.0,33,30.02,10.0,NNW,5.8,-,N/A,,Scattered Clouds,330,2013-04-17 15:53:00
10:53 AM,39.0,10.9,32,30.04,10.0,NNE,3.5,-,N/A,,Scattered Clouds,20,2013-04-17 16:53:00
11:53 AM,39.9,17.1,40,30.04,10.0,WNW,12.7,-,N/A,,Scattered Clouds,300,2013-04-17 17:53:00
12:53 PM,41.0,17.1,38,30.04,10.0,NW,11.5,18.4,N/A,,Clear,310,2013-04-17 18:53:00
1:53 PM,45.0,16.0,31,30.03,10.0,NW,17.3,25.3,N/A,,Clear,310,2013-04-17 19:53:00
2:53 PM,45.0,12.9,27,30.04,10.0,NNW,15.0,25.3,N/A,,Scattered Clouds,330,2013-04-17 20:53:00
3:53 PM,43.0,14.0,31,30.06,10.0,North,10.4,23.0,N/A,,Mostly Cloudy,350,2013-04-17 21:53:00
4:53 PM,46.0,8.1,21,30.06,10.0,NNW,12.7,19.6,N/A,,Overcast,340,2013-04-17 22:53:00
5:53 PM,42.1,7.0,24,30.09,10.0,North,17.3,-,N/A,,Overcast,350,2013-04-17 23:53:00
6:53 PM,42.1,6.1,23,30.10,10.0,North,17.3,-,N/A,,Partly Cloudy,350,2013-04-18 00:53:00
7:53 PM,39.0,10.9,32,30.12,10.0,NNW,17.3,-,N/A,,Clear,340,2013-04-18 01:53:00
8:53 PM,37.0,15.1,41,30.15,10.0,North,11.5,-,N/A,,Clear,350,2013-04-18 02:53:00
9:53 PM,35.1,15.1,44,30.17,10.0,NNW,11.5,-,N/A,,Clear,340,2013-04-18 03:53:00
10:53 PM,34.0,17.1,50,30.18,10.0,NNW,10.4,-,N/A,,Clear,330,2013-04-18 04:53:00
11:53 PM,32.0,17.1,54,30.20,10.0,NW,6.9,-,N/A,,Clear,320,2013-04-18 05:53:00